WE1C Weather Reports


time (UTC)temp
C
wind
direction
speed
KPH
gust
KPH
rain 1hr
cm
rain 24hr
cm
rain mn
cm
humidity
%
barometer
mb
20260504214117 20 98 1.6 1.6 0.00 0.00 0.00 33 1036.2
20260504214003 20 236 3.2 4.8 0.00 0.00 0.00 34 1007.5
20260504213613 20 207 4.8 4.8 0.00 0.00 0.00 33 1036.2
20260504213502 20 186 3.2 4.8 0.00 0.00 0.00 33 1007.5
20260504213110 20 184 0.0 1.6 0.00 0.00 0.00 34 1036.3
20260504212606 20 80 4.8 4.8 0.00 0.00 0.00 34 1036.3
20260504212502 20 161 4.8 6.4 0.00 0.00 0.00 33 1007.8
20260504212103 20 207 4.8 4.8 0.00 0.00 0.00 33 1036.3
20260504212002 20 196 6.4 8.0 0.00 0.00 0.00 34 1007.7
20260504211601 20 210 6.4 9.7 0.00 0.00 0.00 34 1036.4
20260504211503 20 195 1.6 3.2 0.00 0.00 0.00 34 1007.5
20260504211057 20 167 4.8 4.8 0.00 0.00 0.00 35 1036.6
20260504211003 20 346 1.6 3.2 0.00 0.00 0.00 35 1007.5
20260504210555 20 46 4.8 4.8 0.00 0.00 0.00 34 1036.3
20260504210051 20 199 4.8 4.8 0.00 0.00 0.00 34 1036.4
20260504210003 20 204 4.8 6.4 0.00 0.00 0.00 33 1007.7
20260504205549 20 133 3.2 4.8 0.00 0.00 0.00 34 1036.3
20260504205503 20 203 3.2 4.8 0.00 0.00 0.00 33 1007.6
20260504205047 20 235 3.2 3.2 0.00 0.00 0.00 35 1036.3
20260504205002 20 251 3.2 4.8 0.00 0.00 0.00 33 1007.7
20260504204544 20 250 3.2 3.2 0.00 0.00 0.00 34 1036.3
20260504204503 20 176 6.4 8.0 0.00 0.00 0.00 34 1007.5
20260504204043 20 277 4.8 4.8 0.00 0.00 0.00 33 1036.1
20260504203541 21 162 3.2 3.2 0.00 0.00 0.00 32 1036.4
20260504203503 21 162 4.8 4.8 0.00 0.00 0.00 32 1007.7
20260504203038 21 157 3.2 4.8 0.00 0.00 0.00 32 1036.1
20260504203003 21 157 4.8 6.4 0.00 0.00 0.00 32 1007.4
20260504202533 21 261 6.4 9.7 0.00 0.00 0.00 31 1036.2
20260504202502 21 261 8.0 9.7 0.00 0.00 0.00 31 1007.5
20260504202031 21 208 8.0 9.7 0.00 0.00 0.00 31 1036.4
20260504202003 21 208 8.0 9.7 0.00 0.00 0.00 31 1007.7
20260504201527 20 224 3.2 3.2 0.00 0.00 0.00 32 1036.2
20260504201502 20 224 3.2 4.8 0.00 0.00 0.00 32 1007.5
20260504201026 21 236 4.8 8.0 0.00 0.00 0.00 33 1036.5
20260504201004 21 236 6.4 8.0 0.00 0.00 0.00 33 1007.8
20260504200521 21 268 3.2 3.2 0.00 0.00 0.00 31 1036.5
20260504200502 21 268 3.2 4.8 0.00 0.00 0.00 31 1007.8
20260504200018 21 259 3.2 4.8 0.00 0.00 0.00 32 1036.5
20260504200002 21 259 3.2 6.4 0.00 0.00 0.00 32 1007.8
20260504195514 21 254 1.6 3.2 0.00 0.00 0.00 31 1036.3
20260504195503 21 254 3.2 4.8 0.00 0.00 0.00 31 1007.6
20260504195011 21 224 4.8 4.8 0.00 0.00 0.00 31 1036.3
20260504195003 21 224 4.8 6.4 0.00 0.00 0.00 31 1007.6
20260504194508 21 207 1.6 1.6 0.00 0.00 0.00 32 1036.4
20260504194502 21 207 3.2 3.2 0.00 0.00 0.00 32 1007.7
20260504194003 20 203 3.2 3.2 0.00 0.00 0.00 33 1036.5
20260504193503 21 352 3.2 6.4 0.00 0.00 0.00 32 1007.8
20260504193500 21 352 3.2 4.8 0.00 0.00 0.00 32 1036.5
20260504193004 21 204 4.8 8.0 0.00 0.00 0.00 32 1007.8
20260504192959 21 204 4.8 8.0 0.00 0.00 0.00 32 1036.5
20260504192502 21 211 4.8 4.8 0.00 0.00 0.00 31 1007.8
20260504192456 21 211 3.2 3.2 0.00 0.00 0.00 31 1036.5
20260504192003 21 312 6.4 9.7 0.00 0.00 0.00 31 1007.7
20260504191955 21 312 6.4 9.7 0.00 0.00 0.00 31 1036.4
20260504191503 20 204 6.4 8.0 0.00 0.00 0.00 32 1007.9
20260504191452 20 204 4.8 8.0 0.00 0.00 0.00 32 1036.6
20260504191002 21 187 4.8 6.4 0.00 0.00 0.00 30 1007.7
20260504190947 21 187 3.2 4.8 0.00 0.00 0.00 30 1036.4
20260504190443 21 37 11.3 12.9 0.00 0.00 0.00 29 1036.5
20260504190002 21 162 4.8 9.7 0.00 0.00 0.00 30 1007.9
20260504185940 21 353 4.8 8.0 0.00 0.00 0.00 29 1036.6
20260504185503 21 185 3.2 6.4 0.00 0.00 0.00 29 1007.9
20260504185438 21 229 3.2 3.2 0.00 0.00 0.00 30 1036.8
20260504185003 21 192 8.0 11.3 0.00 0.00 0.00 29 1008.0
20260504184933 21 187 4.8 4.8 0.00 0.00 0.00 29 1036.6
20260504184429 21 76 6.4 11.3 0.00 0.00 0.00 29 1036.5
20260504184002 21 173 6.4 9.7 0.00 0.00 0.00 30 1007.8
20260504183925 21 349 4.8 4.8 0.00 0.00 0.00 32 1036.8
20260504183503 20 185 3.2 4.8 0.00 0.00 0.00 31 1008.3
20260504183423 21 327 8.0 9.7 0.00 0.00 0.00 30 1037.0
20260504183002 21 227 1.6 4.8 0.00 0.00 0.00 29 1008.5
20260504182921 21 163 8.0 12.9 0.00 0.00 0.00 29 1037.0
20260504182503 21 197 4.8 6.4 0.00 0.00 0.00 29 1008.3
20260504182417 21 286 4.8 8.0 0.00 0.00 0.00 29 1037.1
20260504181914 21 215 4.8 4.8 0.00 0.00 0.00 30 1036.9
20260504181503 20 222 4.8 6.4 0.00 0.00 0.00 30 1008.4
20260504181412 21 161 6.4 11.3 0.00 0.00 0.00 29 1037.0
20260504181002 20 201 4.8 6.4 0.00 0.00 0.00 30 1008.3
20260504180910 20 293 4.8 11.3 0.00 0.00 0.00 31 1036.9
20260504180503 20 190 12.9 16.1 0.00 0.00 0.00 29 1008.3
20260504180409 20 182 4.8 11.3 0.00 0.00 0.00 30 1037.3
20260504180002 21 179 8.0 9.7 0.00 0.00 0.00 30 1008.5
20260504175907 20 221 6.4 8.0 0.00 0.00 0.00 29 1037.2
20260504175503 20 239 6.4 8.0 0.00 0.00 0.00 30 1008.4
20260504175403 20 161 1.6 3.2 0.00 0.00 0.00 30 1036.9
20260504175002 20 226 8.0 9.7 0.00 0.00 0.00 30 1008.6
20260504174901 20 224 8.0 9.7 0.00 0.00 0.00 30 1037.1
20260504174502 19 206 3.2 4.8 0.00 0.00 0.00 32 1008.5
20260504174358 20 52 3.2 3.2 0.00 0.00 0.00 31 1037.2
20260504174003 20 187 4.8 6.4 0.00 0.00 0.00 31 1008.6
20260504173855 20 247 8.0 9.7 0.00 0.00 0.00 29 1037.3
20260504173503 20 182 3.2 6.4 0.00 0.00 0.00 31 1008.5
20260504173352 20 219 8.0 9.7 0.00 0.00 0.00 31 1037.5
20260504173002 20 224 4.8 6.4 0.00 0.00 0.00 33 1008.8
20260504172849 20 256 4.8 4.8 0.00 0.00 0.00 33 1037.4
20260504172503 20 245 9.7 11.3 0.00 0.00 0.00 32 1008.9
20260504172345 20 150 4.8 8.0 0.00 0.00 0.00 32 1037.3
20260504172002 20 215 4.8 6.4 0.00 0.00 0.00 33 1008.9
20260504171841 19 90 4.8 4.8 0.00 0.00 0.00 33 1037.6
20260504171502 19 241 4.8 6.4 0.00 0.00 0.00 32 1009.0
20260504171339 19 312 4.8 4.8 0.00 0.00 0.00 32 1037.5
20260504171003 19 213 6.4 8.0 0.00 0.00 0.00 33 1008.8
20260504170836 19 314 8.0 9.7 0.00 0.00 0.00 32 1037.5
20260504170502 18 229 6.4 9.7 0.00 0.00 0.00 33 1008.7
20260504170332 18 215 8.0 11.3 0.00 0.00 0.00 33 1037.7
20260504160251 18 179 1.6 3.2 0.00 0.00 0.00 35 1038.2
20260504151002 17 229 4.8 6.4 0.00 0.00 0.00 38 1010.2
20260504150716 17 298 4.8 4.8 0.00 0.00 0.00 39 1039.1
20260504150502 17 227 1.6 3.2 0.00 0.00 0.00 38 1010.2
20260504150213 17 213 3.2 3.2 0.00 0.00 0.00 37 1038.9
20260504141142 16 218 8.0 9.7 0.00 0.00 0.00 39 1039.1
20260504141003 16 216 4.8 6.4 0.00 0.00 0.00 39 1010.4
20260504140639 16 219 4.8 4.8 0.00 0.00 0.00 41 1039.1
20260504140502 16 178 8.0 9.7 0.00 0.00 0.00 39 1010.5
20260504140134 16 209 6.4 8.0 0.00 0.00 0.00 40 1039.2
20260504130603 14 207 6.4 9.7 0.00 0.00 0.00 44 1039.8
20260504130503 14 163 3.2 4.8 0.00 0.00 0.00 45 1011.0
20260504110503 8 160 4.8 6.4 0.00 0.00 0.00 56 1011.0
20260504110451 8 160 4.8 4.8 0.00 0.00 0.00 56 1039.8
20260504100502 3 139 0.0 0.0 0.00 0.00 0.00 76 1011.3
20260504100413 3 137 0.0 0.0 0.00 0.00 0.00 76 1040.2
20260504082002 5 58 0.0 0.0 0.00 0.00 0.00 67 1010.8
20260504081806 5 58 0.0 0.0 0.00 0.00 0.00 67 1039.7
20260504081502 5 44 1.6 3.2 0.00 0.00 0.00 67 1010.8
20260504081302 5 71 0.0 0.0 0.00 0.00 0.00 66 1039.8
20260504080759 5 72 0.0 0.0 0.00 0.00 0.00 66 1039.5
20260504080503 6 72 0.0 0.0 0.00 0.00 0.00 66 1010.7
20260504080255 6 72 0.0 0.0 0.00 0.00 0.00 65 1039.8
20260504070223 6 191 0.0 0.0 0.00 0.00 0.00 60 1039.3
20260504060143 6 188 0.0 0.0 0.00 0.00 0.00 65 1039.5
20260504050612 5 159 0.0 0.0 0.00 0.00 0.00 64 1039.8
20260504050109 5 164 0.0 0.0 0.00 0.00 0.00 61 1039.7
20260504050003 5 165 0.0 0.0 0.00 0.00 0.00 61 1010.8
20260504045606 5 164 0.0 0.0 0.00 0.00 0.00 62 1039.5
20260504045502 5 164 0.0 0.0 0.00 0.00 0.00 62 1010.8
20260504045100 5 149 0.0 0.0 0.00 0.00 0.00 62 1039.6
20260504045002 5 136 0.0 0.0 0.00 0.00 0.00 63 1010.8
20260504044559 5 188 0.0 0.0 0.00 0.00 0.00 61 1039.7
20260504044503 5 188 0.0 0.0 0.00 0.00 0.00 63 1011.0
20260504044055 5 188 0.0 0.0 0.00 0.00 0.00 65 1039.7
20260504044002 5 188 0.0 0.0 0.00 0.00 0.00 64 1010.9
20260504043553 5 188 0.0 0.0 0.00 0.00 0.00 65 1039.7
20260504043502 5 188 0.0 0.0 0.00 0.00 0.00 64 1010.9
20260504043049 5 188 0.0 0.0 0.00 0.00 0.00 65 1039.8
20260504043003 4 188 0.0 0.0 0.00 0.00 0.00 67 1010.8
20260504042546 4 188 0.0 0.0 0.00 0.00 0.00 66 1039.7
20260504042502 4 188 0.0 0.0 0.00 0.00 0.00 63 1011.0
20260504042043 4 188 0.0 0.0 0.00 0.00 0.00 66 1039.8
20260504042002 4 188 0.0 0.0 0.00 0.00 0.00 66 1011.0
20260504041539 3 188 0.0 0.0 0.00 0.00 0.00 66 1039.6
20260504041503 3 188 0.0 0.0 0.00 0.00 0.00 66 1010.8
20260504041035 3 188 0.0 0.0 0.00 0.00 0.00 68 1039.5
20260504041003 3 188 0.0 0.0 0.00 0.00 0.00 68 1010.7
20260504040533 3 188 0.0 1.6 0.00 0.00 0.00 67 1039.5
20260504040502 3 188 1.6 3.2 0.00 0.00 0.00 67 1010.7
20260504040030 3 188 0.0 0.0 0.00 0.00 0.00 69 1039.7
20260504040003 3 188 0.0 0.0 0.00 0.00 0.00 69 1010.9
20260504035527 3 188 0.0 0.0 0.00 0.00 0.00 69 1039.4
20260504035502 3 188 0.0 0.0 0.00 0.00 0.00 69 1010.6
20260504035023 2 188 0.0 0.0 0.00 0.00 0.00 70 1039.6
20260504035003 2 188 0.0 0.0 0.00 0.00 0.00 70 1010.8
20260504034521 2 188 0.0 0.0 0.00 0.00 0.00 69 1039.3
20260504034502 2 188 0.0 0.0 0.00 0.00 0.00 69 1010.5
20260504034017 2 188 0.0 0.0 0.00 0.00 0.00 69 1039.1
20260504033515 3 188 0.0 0.0 0.00 0.00 0.00 66 1039.1
20260504033503 3 188 0.0 0.0 0.00 0.00 0.00 66 1010.3
20260504033013 3 188 0.0 0.0 0.00 0.00 0.00 65 1039.3
20260504033002 3 188 0.0 0.0 0.00 0.00 0.00 65 1010.5
20260504032509 3 188 0.0 1.6 0.00 0.00 0.00 66 1039.2
20260504032503 3 188 1.6 3.2 0.00 0.00 0.00 66 1010.4
20260504032006 2 188 0.0 0.0 0.00 0.00 0.00 69 1038.9
20260504032002 2 188 0.0 0.0 0.00 0.00 0.00 69 1010.1
20260504031503 2 188 0.0 0.0 0.00 0.00 0.00 68 1039.1
20260504030959 2 188 0.0 0.0 0.00 0.00 0.00 70 1039.3
20260504030503 2 188 0.0 0.0 0.00 0.00 0.00 71 1010.1
20260504030457 2 188 0.0 0.0 0.00 0.00 0.00 71 1038.9
20260504030003 2 188 0.0 0.0 0.00 0.00 0.00 72 1010.4
20260504025952 2 188 0.0 0.0 0.00 0.00 0.00 72 1039.2
20260504025502 2 188 0.0 0.0 0.00 0.00 0.00 72 1010.3
20260504025450 2 188 0.0 0.0 0.00 0.00 0.00 72 1039.1
20260504025002 2 188 1.6 3.2 0.00 0.00 0.00 73 1010.4
20260504024946 2 188 0.0 1.6 0.00 0.00 0.00 73 1039.2
20260504024443 2 188 0.0 0.0 0.00 0.00 0.00 74 1038.9
20260504024002 2 188 0.0 0.0 0.00 0.00 0.00 75 1010.2
20260504023940 2 188 0.0 0.0 0.00 0.00 0.00 75 1038.9
20260504023503 2 188 0.0 0.0 0.00 0.00 0.00 75 1010.0
20260504023437 2 188 0.0 1.6 0.00 0.00 0.00 74 1038.8
20260504023002 2 188 0.0 0.0 0.00 0.00 0.00 74 1010.2
20260504022932 2 188 0.0 0.0 0.00 0.00 0.00 74 1038.7
20260504022502 2 188 0.0 0.0 0.00 0.00 0.00 75 1010.0
20260504022429 2 188 0.0 0.0 0.00 0.00 0.00 75 1038.9
20260504022003 2 188 0.0 0.0 0.00 0.00 0.00 75 1009.9
20260504021926 2 188 0.0 0.0 0.00 0.00 0.00 75 1038.8
20260504021502 2 188 1.6 3.2 0.00 0.00 0.00 74 1010.2
20260504021423 2 188 0.0 0.0 0.00 0.00 0.00 74 1039.0
20260504021003 2 188 0.0 0.0 0.00 0.00 0.00 74 1009.9
20260504020920 2 188 0.0 0.0 0.00 0.00 0.00 74 1038.8
20260504020503 2 188 0.0 0.0 0.00 0.00 0.00 74 1009.8
20260504020417 2 188 0.0 0.0 0.00 0.00 0.00 73 1038.7
20260504015914 2 188 0.0 0.0 0.00 0.00 0.00 73 1038.9
20260504015502 2 188 0.0 0.0 0.00 0.00 0.00 72 1010.0
20260504015409 2 188 0.0 1.6 0.00 0.00 0.00 73 1038.5
20260504015002 2 188 1.6 3.2 0.00 0.00 0.00 72 1009.9
20260504014906 2 188 0.0 0.0 0.00 0.00 0.00 72 1038.8
20260504014503 2 188 0.0 0.0 0.00 0.00 0.00 72 1010.0
20260504014401 2 188 0.0 0.0 0.00 0.00 0.00 71 1038.4
20260504014003 2 188 0.0 0.0 0.00 0.00 0.00 71 1009.8
20260504013859 2 188 0.0 0.0 0.00 0.00 0.00 71 1038.5
20260504013502 2 188 0.0 0.0 0.00 0.00 0.00 71 1009.7
20260504013357 2 188 0.0 0.0 0.00 0.00 0.00 70 1038.5
20260504013002 2 188 0.0 0.0 0.00 0.00 0.00 70 1009.8
20260504012853 2 188 0.0 0.0 0.00 0.00 0.00 70 1038.5
20260504012503 2 188 0.0 0.0 0.00 0.00 0.00 69 1010.0
20260504012351 2 188 0.0 0.0 0.00 0.00 0.00 69 1038.5
20260504012003 3 188 0.0 0.0 0.00 0.00 0.00 68 1009.8
20260504011848 3 188 0.0 0.0 0.00 0.00 0.00 68 1038.4
20260504011503 3 188 0.0 0.0 0.00 0.00 0.00 68 1009.8
20260504011345 3 188 0.0 0.0 0.00 0.00 0.00 67 1038.5
20260504011003 3 188 0.0 0.0 0.00 0.00 0.00 67 1009.9
20260504010841 3 188 0.0 0.0 0.00 0.00 0.00 67 1038.5
20260504010503 3 188 0.0 0.0 0.00 0.00 0.00 65 1009.7
20260504010336 3 188 0.0 0.0 0.00 0.00 0.00 64 1038.4
20260504010002 3 188 0.0 0.0 0.00 0.00 0.00 64 1009.6
20260504005833 3 188 0.0 0.0 0.00 0.00 0.00 64 1038.1
20260504005330 3 188 0.0 0.0 0.00 0.00 0.00 62 1038.3
20260504005002 4 188 0.0 0.0 0.00 0.00 0.00 62 1009.5
20260504004828 4 188 0.0 0.0 0.00 0.00 0.00 62 1038.1
20260504004503 4 188 0.0 0.0 0.00 0.00 0.00 61 1009.3
20260504004325 5 188 0.0 0.0 0.00 0.00 0.00 61 1037.9
20260504004002 5 188 0.0 0.0 0.00 0.00 0.00 60 1009.5
20260504003821 5 188 0.0 0.0 0.00 0.00 0.00 61 1038.0
20260504003502 5 188 0.0 0.0 0.00 0.00 0.00 59 1009.4
20260504003319 5 188 0.0 0.0 0.00 0.00 0.00 60 1038.0
20260504003003 5 188 0.0 0.0 0.00 0.00 0.00 58 1009.2
20260504002815 5 188 0.0 0.0 0.00 0.00 0.00 58 1038.1
20260504002502 5 188 0.0 0.0 0.00 0.00 0.00 58 1009.3
20260504002312 6 188 0.0 0.0 0.00 0.00 0.00 59 1038.0
20260504002002 6 188 1.6 3.2 0.00 0.00 0.00 55 1009.2
20260504001810 6 176 0.0 0.0 0.00 0.00 0.00 54 1038.0
20260504001502 6 176 0.0 0.0 0.00 0.00 0.00 56 1009.1
20260504001307 6 176 0.0 0.0 0.00 0.00 0.00 54 1037.7
20260504001003 6 176 0.0 0.0 0.00 0.00 0.00 54 1009.1
20260504000804 6 176 0.0 0.0 0.00 0.00 0.00 53 1037.7
20260504000503 6 177 3.2 3.2 0.00 0.00 0.00 53 1009.0
20260504000301 6 161 0.0 0.0 0.00 0.00 0.00 53 1038.0
20260504000003 7 161 0.0 0.0 0.00 0.00 0.00 52 1009.0
20260503235758 7 161 0.0 0.0 0.00 0.00 0.00 52 1037.7
20260503235256 7 192 0.0 0.0 0.00 0.00 0.00 51 1037.8
20260503234753 7 179 0.0 0.0 0.00 0.00 0.00 50 1037.6
20260503234502 7 182 3.2 4.8 0.00 0.00 0.00 49 1008.8
20260503234251 7 130 0.0 1.6 0.00 0.00 0.00 50 1037.6
20260503234003 8 145 0.0 0.0 0.00 0.00 0.00 49 1009.0
20260503233748 8 103 1.6 1.6 0.00 0.00 0.00 48 1037.6
20260503233502 7 55 3.2 6.4 0.00 0.00 0.00 47 1009.0
20260503233244 8 197 0.0 1.6 0.00 0.00 0.00 48 1037.6
20260503233003 8 206 1.6 3.2 0.00 0.00 0.00 48 1008.8
20260503232741 8 198 1.6 1.6 0.00 0.00 0.00 51 1037.6
20260503232238 8 261 1.6 1.6 0.00 0.00 0.00 45 1037.6
20260503232002 8 188 1.6 3.2 0.00 0.00 0.00 48 1008.8
20260503231736 8 199 0.0 1.6 0.00 0.00 0.00 46 1037.3
20260503231503 8 196 0.0 0.0 0.00 0.00 0.00 46 1008.7
20260503231233 8 205 1.6 1.6 0.00 0.00 0.00 49 1037.5
20260503231002 8 210 3.2 4.8 0.00 0.00 0.00 46 1008.7
20260503230728 8 218 0.0 0.0 0.00 0.00 0.00 46 1037.2
20260503230226 9 207 0.0 1.6 0.00 0.00 0.00 45 1037.2
20260503230002 9 215 4.8 6.4 0.00 0.00 0.00 44 1008.5
20260503225724 9 302 3.2 4.8 0.00 0.00 0.00 42 1037.4
20260503225224 9 231 3.2 3.2 0.00 0.00 0.00 43 1037.2
20260503225002 9 305 4.8 6.4 0.00 0.00 0.00 42 1008.3
20260503224721 9 328 1.6 3.2 0.00 0.00 0.00 42 1037.1
20260503224502 10 240 3.2 3.2 0.00 0.00 0.00 42 1008.6
20260503224219 10 34 4.8 8.0 0.00 0.00 0.00 40 1037.1
20260503224003 10 146 1.6 3.2 0.00 0.00 0.00 41 1008.4
20260503223716 9 74 0.0 1.6 0.00 0.00 0.00 43 1037.1
20260503223502 9 244 1.6 3.2 0.00 0.00 0.00 44 1008.4
20260503223213 9 25 1.6 3.2 0.00 0.00 0.00 42 1037.0
20260503222710 9 193 1.6 1.6 0.00 0.00 0.00 41 1036.9
20260503222502 9 218 0.0 0.0 0.00 0.00 0.00 44 1008.2
20260503222208 9 204 1.6 3.2 0.00 0.00 0.00 43 1037.0
20260503222002 9 180 4.8 4.8 0.00 0.00 0.00 44 1008.0
20260503221706 10 214 3.2 3.2 0.00 0.00 0.00 41 1036.9
20260503221503 10 196 3.2 6.4 0.00 0.00 0.00 40 1008.1
20260503221203 9 42 6.4 11.3 0.00 0.00 0.00 41 1036.7
20260503221002 9 200 4.8 6.4 0.00 0.00 0.00 41 1008.1
20260503220659 9 214 4.8 4.8 0.00 0.00 0.00 42 1036.9
20260503220503 10 355 3.2 4.8 0.00 0.00 0.00 39 1008.2
20260503220156 10 267 4.8 8.0 0.00 0.00 0.00 40 1036.8
20260503220002 9 194 3.2 4.8 0.00 0.00 0.00 42 1008.1
20260503215653 9 189 3.2 3.2 0.00 0.00 0.00 43 1036.7
20260503215503 9 86 3.2 8.0 0.00 0.00 0.00 42 1008.2
20260503215149 9 190 3.2 3.2 0.00 0.00 0.00 43 1036.8
20260503215002 9 241 3.2 4.8 0.00 0.00 0.00 42 1008.1
20260503214648 9 55 1.6 3.2 0.00 0.00 0.00 42 1036.6
20260503214502 10 191 6.4 8.0 0.00 0.00 0.00 40 1008.1